[[{"header":{"parameterUnit":"m.s-1","parameterCategory":1,"la1":30.2991,"la2":30.254,"lo1":-89.0895,"lo2":-89.0444,"dy":0.0017,"dx":0.0017,"nx":28,"ny":28,"refTime":"2024-06-19T03:00:00:Z","depth":0,"parameterNumber":2,"parameterNumberName":"U-component_of_WINDS"},"data":[0,0,0,0,0,0,0,0,0,0,0,0,0,0,0,0,0,0,0,0,0,0,0,0,0,0,0,0,0,0,0,0,0,0,0,0,0,0,0,0,0,0,0,0,0,0,0,0,0,0,0,0,0,0,0,0,0,0,-9.8382,-9.8382,0,-9.8376,-9.8376,-9.8376,-9.8167,-9.8161,-9.8156,-9.8151,-9.8145,-9.815,-9.8155,0,0,0,0,0,0,0,0,0,0,0,0,0,-9.8213,-9.8217,-9.8382,-9.8382,-9.8382,-9.8376,-9.8376,-9.8376,-9.8168,-9.8161,-9.8154,-9.8148,-9.8143,-9.8149,-9.8155,0,0,0,0,0,0,0,0,0,0,0,0,0,-9.8255,-9.8219,-9.8382,-9.8277,-9.8268,-9.8376,-9.8376,-9.8376,-9.8169,-9.8161,-9.8153,-9.8145,-9.8141,-9.8149,-9.8156,-9.8365,0,0,-9.8178,-9.8182,0,0,0,0,0,0,0,0,-9.8253,-9.8261,-9.8293,-9.8285,-9.8274,-9.8264,-9.8314,-9.8372,-9.8171,-9.8207,-9.815,-9.8141,-9.8191,-9.8194,-9.8211,-9.8364,-9.8364,-9.8179,-9.8184,-9.8187,-9.8189,0,0,0,0,0,0,0,-9.825,-9.826,-9.838,-9.8293,-9.8282,-9.8231,-9.8228,-9.8324,-9.8245,-9.8203,-9.8188,-9.819,-9.8184,-9.8204,-9.8209,-9.8364,-9.8179,-9.8185,-9.819,-9.8193,-9.8689,-9.8697,0,0,0,0,0,0,-9.8262,-9.8259,-9.838,-9.8379,-9.8243,-9.824,-9.8237,-9.8275,-9.8243,-9.823,-9.8197,-9.818,-9.8196,-9.8201,-9.8208,-9.845,-9.8187,-9.8194,-9.8198,-9.868,-9.8691,-9.87,0,0,0,0,0,0,-9.8259,-9.8274,-9.838,-9.8315,-9.8325,-9.8252,-9.8297,-9.828,-9.8299,-9.8238,-9.8223,-9.8231,-9.8189,-9.8198,-9.8327,-9.8447,-9.8197,-9.8204,-9.867,-9.8684,-9.8696,-9.8936,0,0,0,0,0,0,-9.8255,-9.8275,-9.8353,-9.8319,-9.8329,-9.85,-9.8304,-9.8285,-9.8312,-9.829,-9.8267,-9.8255,-9.8184,-9.8317,-9.8335,-9.8452,-9.8209,-9.8659,-9.8676,-9.8692,-9.8917,-9.8955,-9.8989,0,0,0,0,0,-9.825,-9.842,-9.8358,-9.8373,-9.8425,-9.8507,-9.8513,-9.8427,-9.8323,-9.8401,-9.8362,-9.8256,-9.8432,-9.8333,-9.835,-9.8472,-9.8651,-9.8671,-9.869,-9.8901,-9.8948,-9.8988,0,0,0,0,0,0,-9.847,-9.8414,-9.8344,-9.8509,-9.8514,-9.8471,-9.8567,-9.848,-9.8515,-9.8493,-9.8385,-9.8382,-9.8528,-9.8513,-9.8404,-9.8672,-9.8523,-9.8547,-9.8677,-9.8721,-9.8756,-9.8756,-9.8215,0,0,0,0,0,-9.8538,-9.8609,-9.8556,-9.8707,-9.8713,-9.8641,-9.8673,-9.8607,-9.8608,-9.8609,-9.8579,-9.8585,-9.8641,-9.868,-9.8729,-9.8915,-9.8906,-9.9007,-9.9043,-9.9073,-9.9094,-9.9192,-9.9236,-9.8765,-9.8765,-9.8765,0,0,-9.8678,-9.8656,-9.8708,-9.875,-9.8747,-9.8823,-9.8644,-9.8731,-9.8787,-9.8622,-9.8742,-9.8722,-9.8721,-9.888,-9.8948,-9.8872,-9.9223,-9.9098,-9.9122,-9.9127,-9.9217,-9.9261,-9.9301,-9.8779,-9.8776,-9.8774,0,0,-9.8972,-9.8964,-9.9088,-9.9089,-9.9086,-9.9037,-9.9068,-9.9039,-9.9019,-9.9138,-9.9017,-9.9081,-9.9181,-9.9185,-9.92,-9.95,-9.9404,-9.9519,-9.9706,-9.9802,-9.9839,-9.9871,-9.9978,-10.0017,-9.9542,-9.9542,-9.9543,0,-9.9147,-9.9256,-9.9163,-9.9259,-9.9282,-9.9138,-9.9263,-9.9269,-9.9283,-9.9301,-9.9216,-9.9338,-9.9327,-9.9485,-9.9559,-9.9576,-9.9608,-9.952,-9.9841,-9.9873,-9.9902,-10.0002,-10.0042,-9.9556,-9.9554,-9.9553,-9.9552,0,-9.9471,-9.955,-9.965,-9.9668,-9.9702,-9.9813,-9.9737,-9.9783,-9.9715,-9.9675,-9.9799,-9.9782,-9.9825,-9.9858,-9.9792,-10.0007,-9.996,-9.986,-9.9707,-9.9962,-10.0054,-10.0092,-9.9576,-9.9571,-9.9567,-9.9563,0,0,-9.9901,-9.9867,-9.9906,-9.9912,-9.99,-9.9959,-10.0064,-10.0106,-10.0147,-10.0163,-10.0248,-10.0337,-10.0245,-10.0262,-10.0196,-10.0281,-10.052,-10.017,-10.0169,-10.0235,-10.0756,-10.083,-10.0876,-10.0457,-10.0464,-10.0469,-10.0755,0,-10.0185,-10.0361,-10.0281,-10.0466,-10.0538,-10.0404,-10.0495,-10.0498,-10.0465,-10.0521,-10.0484,-10.0548,-10.0422,-10.0432,-10.051,-10.0474,-10.0622,-10.0453,-10.0534,-10.0538,-10.0537,-10.0924,-10.1002,-10.1272,-10.0791,-10.0797,-10.0801,0,-10.0538,-10.0569,-10.0762,-10.0738,-10.0765,-10.0848,-10.0881,-10.0937,-10.0938,-10.0908,-10.093,-10.0845,-10.0946,-10.0797,-10.0936,-10.0822,-10.0852,-10.084,-10.0848,-10.085,-10.0684,-10.0935,-10.1356,-10.1397,-10.0857,-10.0853,-10.0849,0,-10.0831,-10.0921,-10.1047,-10.1058,-10.1033,-10.1095,-10.1088,-10.1082,-10.1113,-10.1142,-10.1161,-10.1203,-10.1225,-10.1259,-10.1188,-10.1086,-10.1337,-10.1181,-10.1315,-10.1317,-10.1371,-10.1368,-10.1802,-10.1394,-10.1394,-10.1393,-10.1392,0,-10.1155,-10.1278,-10.1179,-10.1257,-10.1391,-10.1299,-10.1435,-10.1413,-10.1409,-10.148,-10.1368,-10.1438,-10.134,-10.1401,-10.1347,-10.147,-10.1481,-10.146,-10.1443,-10.1469,-10.1471,-10.1484,-10.1463,-10.1404,-10.1401,-10.1399,-10.1397,0,-10.1503,-10.1442,-10.1571,-10.1539,-10.1534,-10.1634,-10.1606,-10.1677,-10.1637,-10.173,-10.1746,-10.1684,-10.1749,-10.1683,-10.1744,-10.1707,-10.1873,-10.183,-10.1872,-10.186,-10.1996,-10.1984,-10.2451,-10.2508,-10.2067,-10.2071,-10.2075,0,-10.1712,-10.1804,-10.1782,-10.1822,-10.1822,-10.1888,-10.192,-10.1834,-10.1872,-10.1882,-10.1952,-10.2008,-10.2048,-10.216,-10.212,-10.2167,-10.2123,-10.2284,-10.2129,-10.2153,-10.2124,-10.2119,-10.2128,-10.2315,-10.232,-10.2325,-10.2328,0,-10.2091,-10.2057,-10.2106,-10.2147,-10.2188,-10.2215,-10.2234,-10.2273,-10.2185,-10.2233,-10.2299,-10.2331,-10.2394,-10.2452,-10.2487,-10.248,-10.2391,-10.2378,-10.2411,-10.2436,-10.2457,-10.2446,-10.1956,-10.2367,-10.2363,-10.236,-10.2358,-10.2356,-10.2374,-10.245,-10.2447,-10.2506,-10.2512,-10.2533,-10.2598,-10.2567,-10.2621,-10.2666,-10.2613,-10.2694,-10.2695,-10.2733,-10.2737,-10.28,-10.2731,-10.278,-10.2791,-10.2804,-10.2824,-10.2449,-10.2806,-10.2805,-10.2804,-10.2803,-10.2802,0,-10.2745,-10.2737,-10.2793,-10.2824,-10.2871,-10.2784,-10.2801,-10.2846,-10.292,-10.2928,-10.2971,-10.3048,-10.3104,-10.307,-10.3118,-10.3175,-10.3135,-10.319,-10.3184,-10.3184,-10.2883,-10.2849,-10.3221,-10.3221,-10.3221,-10.3221,-10.3221,-10.3221,-10.2944,-10.3066,-10.3033,-10.3158,-10.3149,-10.3228,-10.3245,-10.3264,-10.327,-10.3361,-10.3407,-10.3385,-10.3377,-10.3424,-10.3472,-10.346,-10.3483,-10.3553,-10.3527,-10.3246,-10.3205,-10.3165,-10.3132,-10.3559,-10.3559,-10.3822,-10.3824,-10.3826]},{"header":{"parameterUnit":"m.s-1","parameterCategory":1,"la1":30.2991,"la2":30.254,"lo1":-89.0895,"lo2":-89.0444,"dy":0.0017,"dx":0.0017,"nx":28,"ny":28,"refTime":"2024-06-19T03:00:00:Z","depth":0,"parameterNumber":3,"parameterNumberName":"V-component_of_WINDS"},"data":[0,0,0,0,0,0,0,0,0,0,0,0,0,0,0,0,0,0,0,0,0,0,0,0,0,0,0,0,0,0,0,0,0,0,0,0,0,0,0,0,0,0,0,0,0,0,0,0,0,0,0,0,0,0,0,0,0,0,-0.0346,-0.0345,0,-0.031,-0.031,-0.031,-0.0231,-0.0229,-0.0228,-0.0226,-0.0194,-0.0195,-0.0196,0,0,0,0,0,0,0,0,0,0,0,0,0,-0.0347,-0.0348,-0.0346,-0.0345,-0.0345,-0.031,-0.031,-0.031,-0.0231,-0.0229,-0.0227,-0.0225,-0.0194,-0.0195,-0.0196,0,0,0,0,0,0,0,0,0,0,0,0,0,-0.0333,-0.0348,-0.0346,-0.0301,-0.0297,-0.0311,-0.031,-0.0309,-0.0232,-0.0229,-0.0227,-0.0224,-0.0194,-0.0195,-0.0196,-0.0251,0,0,-0.0199,-0.0199,0,0,0,0,0,0,0,0,-0.0334,-0.0333,-0.0308,-0.0304,-0.03,-0.0272,-0.0299,-0.029,-0.0232,-0.0257,-0.0226,-0.0223,-0.0223,-0.0221,-0.022,-0.025,-0.0248,-0.0199,-0.02,-0.02,-0.02,0,0,0,0,0,0,0,-0.0335,-0.0334,-0.0332,-0.0308,-0.0303,-0.0284,-0.0279,-0.0297,-0.0254,-0.0254,-0.0248,-0.0245,-0.022,-0.0219,-0.0219,-0.0248,-0.0199,-0.02,-0.0201,-0.0201,-0.0319,-0.0322,0,0,0,0,0,0,-0.0342,-0.0335,-0.0333,-0.0331,-0.0311,-0.0286,-0.0281,-0.0284,-0.0253,-0.0246,-0.0247,-0.0242,-0.0219,-0.0218,-0.0217,-0.0279,-0.02,-0.0201,-0.0202,-0.0317,-0.032,-0.0323,0,0,0,0,0,0,-0.0342,-0.0342,-0.0334,-0.0331,-0.0329,-0.0288,-0.0293,-0.0284,-0.0284,-0.0248,-0.024,-0.0254,-0.0217,-0.0216,-0.0243,-0.0277,-0.0201,-0.0202,-0.0314,-0.0318,-0.0321,-0.0404,0,0,0,0,0,0,-0.0343,-0.0343,-0.0363,-0.0332,-0.0329,-0.036,-0.0295,-0.0285,-0.0285,-0.0277,-0.0253,-0.0246,-0.0215,-0.0242,-0.0244,-0.0277,-0.0203,-0.0311,-0.0316,-0.032,-0.0398,-0.0411,-0.0421,0,0,0,0,0,-0.0343,-0.0389,-0.0365,-0.0365,-0.0353,-0.0362,-0.036,-0.0322,-0.0288,-0.0308,-0.0285,-0.0247,-0.0273,-0.0245,-0.0247,-0.0281,-0.0308,-0.0314,-0.032,-0.0393,-0.0408,-0.0421,0,0,0,0,0,0,-0.0427,-0.0384,-0.0357,-0.0394,-0.0382,-0.0349,-0.0373,-0.0339,-0.0337,-0.033,-0.0284,-0.0279,-0.0312,-0.0299,-0.0269,-0.0332,-0.0284,-0.0291,-0.034,-0.0353,-0.0364,-0.0368,-0.0204,0,0,0,0,0,-0.0449,-0.0459,-0.0421,-0.0458,-0.0453,-0.0414,-0.0416,-0.0387,-0.0374,-0.0369,-0.0348,-0.0337,-0.0342,-0.0347,-0.035,-0.0396,-0.0389,-0.042,-0.0431,-0.0441,-0.0447,-0.047,-0.0483,-0.0342,-0.0342,-0.0341,0,0,-0.0497,-0.0474,-0.0484,-0.0474,-0.0461,-0.0473,-0.0411,-0.0426,-0.0434,-0.0371,-0.0395,-0.0379,-0.0364,-0.04,-0.0415,-0.039,-0.0484,-0.0448,-0.0456,-0.0457,-0.0477,-0.049,-0.0502,-0.0345,-0.0345,-0.0344,0,0,-0.0589,-0.0573,-0.0601,-0.0589,-0.057,-0.0543,-0.055,-0.0521,-0.0508,-0.053,-0.0483,-0.0492,-0.0503,-0.0494,-0.049,-0.0577,-0.0542,-0.0579,-0.0639,-0.0661,-0.0672,-0.0682,-0.0713,-0.0725,-0.0585,-0.0586,-0.0586,0,-0.0651,-0.0665,-0.062,-0.0638,-0.0635,-0.0577,-0.0605,-0.0596,-0.058,-0.0579,-0.0551,-0.0562,-0.0548,-0.0581,-0.0601,-0.0601,-0.0607,-0.0582,-0.0674,-0.0683,-0.0692,-0.0721,-0.0733,-0.059,-0.059,-0.0589,-0.0589,0,-0.0742,-0.0752,-0.0777,-0.0761,-0.0761,-0.0784,-0.0743,-0.0749,-0.0719,-0.0696,-0.0719,-0.07,-0.0697,-0.0703,-0.0675,-0.0732,-0.0717,-0.0682,-0.0633,-0.0711,-0.0737,-0.0748,-0.0597,-0.0595,-0.0594,-0.0593,0,0,-0.0888,-0.0844,-0.0854,-0.0846,-0.0819,-0.0827,-0.0847,-0.0843,-0.0849,-0.0839,-0.0855,-0.0864,-0.0831,-0.0827,-0.0798,-0.0818,-0.0887,-0.078,-0.0779,-0.0801,-0.0948,-0.0975,-0.0989,-0.0863,-0.0865,-0.0866,-0.095,0,-0.0974,-0.1005,-0.0965,-0.1005,-0.1014,-0.0958,-0.0975,-0.0962,-0.094,-0.0945,-0.0921,-0.0928,-0.0884,-0.0882,-0.0899,-0.0875,-0.0916,-0.0868,-0.0879,-0.088,-0.0885,-0.1002,-0.1031,-0.1111,-0.096,-0.0961,-0.0963,0,-0.1079,-0.1072,-0.1113,-0.1083,-0.1085,-0.1101,-0.1094,-0.1099,-0.1082,-0.1065,-0.106,-0.1024,-0.1042,-0.0993,-0.1018,-0.0987,-0.0988,-0.0977,-0.0979,-0.098,-0.0927,-0.1007,-0.1135,-0.1147,-0.0979,-0.0977,-0.0976,0,-0.1182,-0.1183,-0.1207,-0.1201,-0.1166,-0.1179,-0.1165,-0.1146,-0.1145,-0.1139,-0.1138,-0.1135,-0.1133,-0.1132,-0.1096,-0.1064,-0.1125,-0.1074,-0.1112,-0.1113,-0.1129,-0.1128,-0.126,-0.1129,-0.1128,-0.1128,-0.1128,0,-0.1283,-0.131,-0.1252,-0.1267,-0.1296,-0.1249,-0.1279,-0.126,-0.1243,-0.1253,-0.1205,-0.1216,-0.1167,-0.1174,-0.1146,-0.1171,-0.117,-0.1157,-0.115,-0.1162,-0.1164,-0.1163,-0.1157,-0.1131,-0.1131,-0.113,-0.1129,0,-0.1403,-0.1365,-0.1387,-0.1352,-0.1343,-0.1366,-0.1336,-0.1349,-0.1323,-0.1337,-0.1338,-0.1298,-0.1303,-0.1266,-0.1265,-0.1246,-0.1284,-0.1267,-0.129,-0.1285,-0.1325,-0.1322,-0.1462,-0.1478,-0.1336,-0.1337,-0.1339,0,-0.147,-0.1489,-0.1455,-0.1458,-0.1446,-0.1452,-0.145,-0.1405,-0.1406,-0.1387,-0.1402,-0.1403,-0.1401,-0.1411,-0.1383,-0.1381,-0.1363,-0.1412,-0.1363,-0.1375,-0.1365,-0.1364,-0.1366,-0.1423,-0.1425,-0.1427,-0.1428,0,-0.1594,-0.1573,-0.1573,-0.1566,-0.1565,-0.1558,-0.1547,-0.1553,-0.1503,-0.1507,-0.151,-0.1508,-0.1505,-0.1507,-0.1499,-0.1486,-0.1449,-0.1443,-0.1452,-0.1465,-0.1478,-0.1472,-0.1319,-0.144,-0.1439,-0.1438,-0.1438,-0.1437,-0.1689,-0.1703,-0.1681,-0.1682,-0.1669,-0.166,-0.1669,-0.1644,-0.1645,-0.1639,-0.1612,-0.162,-0.1601,-0.1587,-0.1577,-0.1583,-0.156,-0.1573,-0.1576,-0.158,-0.1587,-0.1476,-0.1582,-0.1581,-0.1581,-0.1581,-0.158,0,-0.181,-0.1793,-0.1794,-0.1779,-0.178,-0.1743,-0.1729,-0.1733,-0.174,-0.1725,-0.1723,-0.1727,-0.1727,-0.1698,-0.1695,-0.1706,-0.1689,-0.1707,-0.1706,-0.1703,-0.1609,-0.1601,-0.172,-0.172,-0.172,-0.172,-0.172,-0.172,-0.1874,-0.1895,-0.1872,-0.1887,-0.1869,-0.1876,-0.1871,-0.1862,-0.185,-0.1856,-0.1855,-0.1835,-0.1815,-0.181,-0.1809,-0.18,-0.1802,-0.1825,-0.1811,-0.1724,-0.171,-0.1697,-0.169,-0.1826,-0.1826,-0.1905,-0.1906,-0.1907]}]]